Location: Fort Worth, Tx
(32.7431°N, 97.3695°W)
Time: 06:39:57
(UTC-04:00)

Hubble Space Telescope - Visible Passes

Search period start: 10 July 2020 00:00
Search period end: 20 July 2020 00:00
Orbit: 536 x 540 km, 28.5° (Epoch: 09 July)

Date Brightness Start Highest point End Pass type
(mag) Time Alt. Az. Time Alt. Az. Time Alt. Az.
10 Jul 2.6 00:02:05 10° WSW 00:03:37 21° WSW 00:03:37 21° WSW visible
10 Jul 1.7 22:10:46 10° SW 22:14:25 31° SSE 22:18:05 10° ESE visible
10 Jul 2.0 23:51:21 10° WSW 23:53:45 30° SW 23:53:45 30° SW visible
11 Jul 1.5 23:40:38 10° WSW 23:43:44 39° SW 23:43:44 39° SW visible
12 Jul 1.2 23:29:56 10° WSW 23:33:38 44° SSW 23:33:38 44° SSW visible
13 Jul 1.2 23:19:14 10° WSW 23:23:09 42° S 23:23:26 41° S visible
14 Jul 1.4 23:08:33 10° WSW 23:12:25 39° S 23:13:12 35° SSE visible
15 Jul 1.6 22:57:54 10° WSW 23:01:41 35° S 23:02:56 28° SSE visible
16 Jul 1.8 22:47:16 10° WSW 22:50:56 31° SSW 22:52:39 22° SSE visible
17 Jul 2.0 22:36:40 10° WSW 22:40:10 27° SSW 22:42:22 17° SSE visible
18 Jul 2.3 22:26:07 10° WSW 22:29:25 23° SSW 22:32:07 13° SSE visible
19 Jul 2.6 22:15:38 10° WSW 22:18:39 20° SSW 22:21:39 10° SSE visible
